Data supplied by UK-AIR on 25/3/2016
All Data GMT hour ending 
Status: R =Ratified P=Provisional,P*=As supplied
,,Tower Hamlets Roadside,,,,,,,,,,,,,,,,,,,,,,,
Date,time,"Nitric oxide",status,unit,"Nitrogen dioxide",status,unit,"Nitrogen oxides as nitrogen dioxide",status,unit
 
01-01-2015,01:00,1.87386,R,ugm-3,27.08929,R,ugm-3,29.96250,R,ugm-3
01-01-2015,02:00,3.94978,R,ugm-3,29.72344,R,ugm-3,35.77969,R,ugm-3
01-01-2015,03:00,2.62089,R,ugm-3,28.13527,R,ugm-3,32.15391,R,ugm-3
01-01-2015,04:00,2.01283,R,ugm-3,25.06331,R,ugm-3,28.14961,R,ugm-3
01-01-2015,05:00,2.43068,R,ugm-3,21.07575,R,ugm-3,24.80273,R,ugm-3
01-01-2015,06:00,1.78520,R,ugm-3,18.00141,R,ugm-3,20.73867,R,ugm-3
01-01-2015,07:00,2.08892,R,ugm-3,16.75876,R,ugm-3,19.96172,R,ugm-3
01-01-2015,08:00,,,,,,,,,
01-01-2015,09:00,2.16469,R,ugm-3,14.19218,R,ugm-3,17.51133,R,ugm-3
01-01-2015,10:00,2.01283,R,ugm-3,14.30550,R,ugm-3,17.39180,R,ugm-3
01-01-2015,11:00,3.18997,R,ugm-3,15.42909,R,ugm-3,20.32031,R,ugm-3
01-01-2015,12:00,2.43068,R,ugm-3,15.21872,R,ugm-3,18.94570,R,ugm-3
01-01-2015,13:00,2.81048,R,ugm-3,15.89144,R,ugm-3,20.20078,R,ugm-3
01-01-2015,14:00,3.07615,R,ugm-3,17.93447,R,ugm-3,22.65117,R,ugm-3
01-01-2015,15:00,3.26637,R,ugm-3,17.10492,R,ugm-3,22.11328,R,ugm-3
01-01-2015,16:00,3.07615,R,ugm-3,20.08603,R,ugm-3,24.80273,R,ugm-3
01-01-2015,17:00,4.89939,R,ugm-3,17.52950,R,ugm-3,25.04180,R,ugm-3
01-01-2015,18:00,4.33000,R,ugm-3,17.50607,R,ugm-3,24.14531,R,ugm-3
01-01-2015,19:00,3.64617,R,ugm-3,16.10421,R,ugm-3,21.69492,R,ugm-3
01-01-2015,20:00,2.88656,R,ugm-3,16.55173,R,ugm-3,20.97773,R,ugm-3
01-01-2015,21:00,3.91216,R,ugm-3,14.20223,R,ugm-3,20.20078,R,ugm-3
01-01-2015,22:00,2.96234,R,ugm-3,14.40352,R,ugm-3,18.94570,R,ugm-3
01-01-2015,23:00,3.26637,R,ugm-3,17.10492,R,ugm-3,22.11328,R,ugm-3
01-01-2015,24:00,3.26637,R,ugm-3,13.69828,R,ugm-3,18.70664,R,ugm-3
02-01-2015,01:00,4.00051,R,ugm-3,11.57063,R,ugm-3,17.70465,R,ugm-3
02-01-2015,02:00,2.43057,R,ugm-3,14.69501,R,ugm-3,18.42184,R,ugm-3
02-01-2015,03:00,2.05119,R,ugm-3,11.56919,R,ugm-3,14.71430,R,ugm-3
02-01-2015,04:00,3.34214,R,ugm-3,14.37435,R,ugm-3,19.49889,R,ugm-3
02-01-2015,05:00,4.40578,R,ugm-3,19.98084,R,ugm-3,26.73627,R,ugm-3
02-01-2015,06:00,4.40546,R,ugm-3,21.41713,R,ugm-3,28.17208,R,ugm-3
02-01-2015,07:00,10.63479,R,ugm-3,29.98896,R,ugm-3,46.29541,R,ugm-3
02-01-2015,08:00,11.88802,R,ugm-3,38.17541,R,ugm-3,56.40345,R,ugm-3
02-01-2015,09:00,12.34359,R,ugm-3,49.20098,R,ugm-3,68.12755,R,ugm-3
02-01-2015,10:00,17.50897,R,ugm-3,55.63606,R,ugm-3,82.48278,R,ugm-3
02-01-2015,11:00,26.16867,R,ugm-3,63.35252,R,ugm-3,103.47725,R,ugm-3
02-01-2015,12:00,20.39554,R,ugm-3,55.87512,R,ugm-3,87.14784,R,ugm-3
02-01-2015,13:00,20.12986,R,ugm-3,55.50505,R,ugm-3,86.37041,R,ugm-3
02-01-2015,14:00,21.19256,R,ugm-3,51.42330,R,ugm-3,83.91811,R,ugm-3
02-01-2015,15:00,34.37185,R,ugm-3,73.98219,R,ugm-3,126.68496,R,ugm-3
02-01-2015,16:00,25.82691,R,ugm-3,67.52464,R,ugm-3,107.12534,R,ugm-3
02-01-2015,17:00,36.61324,R,ugm-3,88.54875,R,ugm-3,144.68828,R,ugm-3
02-01-2015,18:00,41.81604,R,ugm-3,98.03714,R,ugm-3,162.15418,R,ugm-3
02-01-2015,19:00,35.39744,R,ugm-3,101.06033,R,ugm-3,155.33564,R,ugm-3
02-01-2015,20:00,33.84018,R,ugm-3,97.64651,R,ugm-3,149.53407,R,ugm-3
02-01-2015,21:00,15.53387,R,ugm-3,78.70224,R,ugm-3,102.52052,R,ugm-3
02-01-2015,22:00,21.19287,R,ugm-3,73.07519,R,ugm-3,105.57048,R,ugm-3
02-01-2015,23:00,23.47200,R,ugm-3,78.49283,R,ugm-3,114.48273,R,ugm-3
02-01-2015,24:00,19.78779,R,ugm-3,74.45219,R,ugm-3,104.79305,R,ugm-3
03-01-2015,01:00,12.15411,R,ugm-3,54.55470,R,ugm-3,73.19074,R,ugm-3
03-01-2015,02:00,4.40588,R,ugm-3,42.33064,R,ugm-3,49.08623,R,ugm-3
03-01-2015,03:00,3.19028,R,ugm-3,30.54645,R,ugm-3,35.43815,R,ugm-3
03-01-2015,04:00,5.20342,R,ugm-3,29.55434,R,ugm-3,37.53281,R,ugm-3
03-01-2015,05:00,8.62134,R,ugm-3,37.72263,R,ugm-3,50.94183,R,ugm-3
03-01-2015,06:00,10.44458,R,ugm-3,44.98391,R,ugm-3,60.99871,R,ugm-3
03-01-2015,07:00,12.53349,R,ugm-3,52.67551,R,ugm-3,71.89327,R,ugm-3
03-01-2015,08:00,13.55878,R,ugm-3,64.63198,R,ugm-3,85.42181,R,ugm-3
03-01-2015,09:00,10.93851,R,ugm-3,62.42400,R,ugm-3,79.19615,R,ugm-3
03-01-2015,10:00,21.57268,R,ugm-3,71.26071,R,ugm-3,104.33835,R,ugm-3
03-01-2015,11:00,18.00259,R,ugm-3,65.36112,R,ugm-3,92.96471,R,ugm-3
03-01-2015,12:00,10.36849,R,ugm-3,49.83019,R,ugm-3,65.72832,R,ugm-3
03-01-2015,13:00,46.33626,R,ugm-3,84.23224,R,ugm-3,155.28018,R,ugm-3
03-01-2015,14:00,54.23572,R,ugm-3,106.12080,R,ugm-3,189.28108,R,ugm-3
03-01-2015,15:00,37.18264,R,ugm-3,88.39001,R,ugm-3,145.40259,R,ugm-3
03-01-2015,16:00,35.16949,R,ugm-3,83.27647,R,ugm-3,137.20227,R,ugm-3
03-01-2015,17:00,34.06844,R,ugm-3,79.75603,R,ugm-3,131.99358,R,ugm-3
03-01-2015,18:00,46.48781,R,ugm-3,90.10553,R,ugm-3,161.38583,R,ugm-3
03-01-2015,19:00,65.47795,R,ugm-3,123.66225,R,ugm-3,224.06037,R,ugm-3
03-01-2015,20:00,66.54127,R,ugm-3,117.78179,R,ugm-3,219.81032,R,ugm-3
03-01-2015,21:00,60.31288,R,ugm-3,113.32471,R,ugm-3,205.80317,R,ugm-3
03-01-2015,22:00,68.74400,R,ugm-3,124.40143,R,ugm-3,229.80743,R,ugm-3
03-01-2015,23:00,55.26132,R,ugm-3,111.85161,R,ugm-3,196.58444,R,ugm-3
03-01-2015,24:00,46.56389,R,ugm-3,92.86239,R,ugm-3,164.25937,R,ugm-3
04-01-2015,01:00,56.51059,R,ugm-3,100.91689,R,ugm-3,187.56525,R,ugm-3
04-01-2015,02:00,52.35417,R,ugm-3,99.62786,R,ugm-3,179.90314,R,ugm-3
04-01-2015,03:00,65.26591,R,ugm-3,101.41988,R,ugm-3,201.49287,R,ugm-3
04-01-2015,04:00,68.87653,R,ugm-3,101.81003,R,ugm-3,207.41923,R,ugm-3
04-01-2015,05:00,51.12558,R,ugm-3,94.96662,R,ugm-3,173.35808,R,ugm-3
04-01-2015,06:00,66.97627,R,ugm-3,96.76246,R,ugm-3,199.45797,R,ugm-3
04-01-2015,07:00,88.37682,R,ugm-3,113.09425,R,ugm-3,248.60348,R,ugm-3
04-01-2015,08:00,44.89157,R,ugm-3,94.70843,R,ugm-3,163.54122,R,ugm-3
04-01-2015,09:00,41.85035,R,ugm-3,84.34603,R,ugm-3,148.51567,R,ugm-3
04-01-2015,10:00,42.83914,R,ugm-3,86.30204,R,ugm-3,151.98781,R,ugm-3
04-01-2015,11:00,22.61698,R,ugm-3,67.38455,R,ugm-3,102.06343,R,ugm-3
04-01-2015,12:00,21.21034,R,ugm-3,61.22104,R,ugm-3,93.74310,R,ugm-3
04-01-2015,13:00,23.11122,R,ugm-3,67.46535,R,ugm-3,102.90206,R,ugm-3
04-01-2015,14:00,21.24838,R,ugm-3,63.85646,R,ugm-3,96.43686,R,ugm-3
04-01-2015,15:00,14.90056,R,ugm-3,59.46202,R,ugm-3,82.30922,R,ugm-3
04-01-2015,16:00,14.02620,R,ugm-3,60.50337,R,ugm-3,82.00991,R,ugm-3
04-01-2015,17:00,14.44436,R,ugm-3,63.15458,R,ugm-3,85.30228,R,ugm-3
04-01-2015,18:00,17.06712,R,ugm-3,64.40105,R,ugm-3,90.57026,R,ugm-3
04-01-2015,19:00,19.49998,R,ugm-3,70.24804,R,ugm-3,100.14758,R,ugm-3
04-01-2015,20:00,18.20777,R,ugm-3,68.27912,R,ugm-3,96.19732,R,ugm-3
04-01-2015,21:00,24.51755,R,ugm-3,73.09001,R,ugm-3,110.68307,R,ugm-3
04-01-2015,22:00,27.71033,R,ugm-3,76.69460,R,ugm-3,119.18318,R,ugm-3
04-01-2015,23:00,31.39766,R,ugm-3,78.52390,R,ugm-3,126.66631,R,ugm-3
04-01-2015,24:00,33.90598,R,ugm-3,83.41703,R,ugm-3,135.40548,R,ugm-3
05-01-2015,01:00,31.72715,R,ugm-3,80.03685,R,ugm-3,128.68448,R,ugm-3
05-01-2015,02:00,58.33497,R,ugm-3,102.26329,R,ugm-3,191.70900,R,ugm-3
05-01-2015,03:00,38.54407,R,ugm-3,88.99484,R,ugm-3,148.09492,R,ugm-3
05-01-2015,04:00,7.71611,R,ugm-3,56.94469,R,ugm-3,68.77589,R,ugm-3
05-01-2015,05:00,8.40057,R,ugm-3,43.85363,R,ugm-3,56.73431,R,ugm-3
05-01-2015,06:00,8.02045,R,ugm-3,50.42737,R,ugm-3,62.72522,R,ugm-3
05-01-2015,07:00,33.71608,R,ugm-3,72.67357,R,ugm-3,124.37083,R,ugm-3
05-01-2015,08:00,73.20996,R,ugm-3,109.23005,R,ugm-3,221.48376,R,ugm-3
05-01-2015,09:00,50.66938,R,ugm-3,105.27022,R,ugm-3,182.96218,R,ugm-3
05-01-2015,10:00,40.97630,R,ugm-3,93.59345,R,ugm-3,156.42290,R,ugm-3
05-01-2015,11:00,31.16940,R,ugm-3,78.79596,R,ugm-3,126.58838,R,ugm-3
05-01-2015,12:00,34.51466,R,ugm-3,77.67953,R,ugm-3,130.60128,R,ugm-3
05-01-2015,13:00,32.38583,R,ugm-3,71.95781,R,ugm-3,121.61540,R,ugm-3
05-01-2015,14:00,29.87720,R,ugm-3,74.96570,R,ugm-3,120.77677,R,ugm-3
05-01-2015,15:00,17.63713,R,ugm-3,70.60854,R,ugm-3,97.65177,R,ugm-3
05-01-2015,16:00,15.66048,R,ugm-3,64.77303,R,ugm-3,88.78542,R,ugm-3
05-01-2015,17:00,9.80658,R,ugm-3,51.94159,R,ugm-3,66.97814,R,ugm-3
05-01-2015,18:00,11.40344,R,ugm-3,52.66882,R,ugm-3,70.15385,R,ugm-3
05-01-2015,19:00,10.37722,R,ugm-3,48.31071,R,ugm-3,64.22223,R,ugm-3
05-01-2015,20:00,9.38905,R,ugm-3,47.01068,R,ugm-3,61.40703,R,ugm-3
05-01-2015,21:00,6.49999,R,ugm-3,40.47711,R,ugm-3,50.44362,R,ugm-3
05-01-2015,22:00,5.96802,R,ugm-3,40.15389,R,ugm-3,49.30473,R,ugm-3
05-01-2015,23:00,6.04379,R,ugm-3,33.86751,R,ugm-3,43.13453,R,ugm-3
05-01-2015,24:00,5.73976,R,ugm-3,38.58708,R,ugm-3,47.38793,R,ugm-3
06-01-2015,01:00,3.44629,R,ugm-3,32.84846,R,ugm-3,38.13270,R,ugm-3
06-01-2015,02:00,1.92583,R,ugm-3,25.34700,R,ugm-3,28.29990,R,ugm-3
06-01-2015,03:00,2.47090,R,ugm-3,20.91319,R,ugm-3,24.70185,R,ugm-3
06-01-2015,04:00,2.54668,R,ugm-3,21.09727,R,ugm-3,25.00211,R,ugm-3
06-01-2015,05:00,2.77462,R,ugm-3,20.56750,R,ugm-3,24.82186,R,ugm-3
06-01-2015,06:00,2.96514,R,ugm-3,24.71285,R,ugm-3,29.25934,R,ugm-3
06-01-2015,07:00,10.45331,R,ugm-3,40.21127,R,ugm-3,56.23945,R,ugm-3
06-01-2015,08:00,8.59047,R,ugm-3,43.42714,R,ugm-3,56.59900,R,ugm-3
06-01-2015,09:00,12.12563,R,ugm-3,46.04105,R,ugm-3,64.63342,R,ugm-3
06-01-2015,10:00,12.35388,R,ugm-3,49.52801,R,ugm-3,68.47037,R,ugm-3
06-01-2015,11:00,11.47921,R,ugm-3,44.75393,R,ugm-3,62.35515,R,ugm-3
06-01-2015,12:00,12.92390,R,ugm-3,46.07643,R,ugm-3,65.89280,R,ugm-3
06-01-2015,13:00,16.49710,R,ugm-3,50.19022,R,ugm-3,75.48542,R,ugm-3
06-01-2015,14:00,32.76595,R,ugm-3,74.17010,R,ugm-3,124.41052,R,ugm-3
06-01-2015,15:00,35.50252,R,ugm-3,72.79214,R,ugm-3,127.22858,R,ugm-3
06-01-2015,16:00,42.26881,R,ugm-3,88.31829,R,ugm-3,153.12957,R,ugm-3
06-01-2015,17:00,65.91201,R,ugm-3,112.86236,R,ugm-3,213.92603,R,ugm-3
06-01-2015,18:00,62.14859,R,ugm-3,111.85734,R,ugm-3,207.15053,R,ugm-3
06-01-2015,19:00,56.33306,R,ugm-3,116.75813,R,ugm-3,203.13428,R,ugm-3
06-01-2015,20:00,57.20742,R,ugm-3,116.85566,R,ugm-3,204.57248,R,ugm-3
06-01-2015,21:00,49.68089,R,ugm-3,110.10980,R,ugm-3,186.28611,R,ugm-3
06-01-2015,22:00,37.55496,R,ugm-3,103.46051,R,ugm-3,161.04398,R,ugm-3
06-01-2015,23:00,30.02937,R,ugm-3,91.61688,R,ugm-3,137.66127,R,ugm-3
06-01-2015,24:00,29.53482,R,ugm-3,89.49687,R,ugm-3,134.78296,R,ugm-3
07-01-2015,01:00,25.76756,R,ugm-3,83.69993,R,ugm-3,123.20963,R,ugm-3
07-01-2015,02:00,10.09398,R,ugm-3,61.40846,R,ugm-3,76.88569,R,ugm-3
07-01-2015,03:00,5.17380,R,ugm-3,49.31142,R,ugm-3,57.24447,R,ugm-3
07-01-2015,04:00,4.18469,R,ugm-3,40.92750,R,ugm-3,47.34394,R,ugm-3
07-01-2015,05:00,6.84768,R,ugm-3,52.86533,R,ugm-3,63.36495,R,ugm-3
07-01-2015,06:00,12.55408,R,ugm-3,58.45652,R,ugm-3,77.70583,R,ugm-3
07-01-2015,07:00,39.56436,R,ugm-3,88.62716,R,ugm-3,149.29166,R,ugm-3
07-01-2015,08:00,28.76024,R,ugm-3,89.77227,R,ugm-3,133.87070,R,ugm-3
07-01-2015,09:00,20.20065,R,ugm-3,73.73500,R,ugm-3,104.70890,R,ugm-3
07-01-2015,10:00,13.99970,R,ugm-3,64.58130,R,ugm-3,86.04720,R,ugm-3
07-01-2015,11:00,,,,,,,,,
07-01-2015,12:00,9.85305,R,ugm-3,54.79838,R,ugm-3,69.90618,R,ugm-3
07-01-2015,13:00,6.84768,R,ugm-3,40.20458,R,ugm-3,50.70420,R,ugm-3
07-01-2015,14:00,6.12487,R,ugm-3,38.97245,R,ugm-3,48.36378,R,ugm-3
07-01-2015,15:00,6.46725,R,ugm-3,36.76733,R,ugm-3,46.68365,R,ugm-3
07-01-2015,16:00,5.36401,R,ugm-3,39.53903,R,ugm-3,47.76373,R,ugm-3
07-01-2015,17:00,6.31508,R,ugm-3,41.80056,R,ugm-3,51.48354,R,ugm-3
07-01-2015,18:00,7.15202,R,ugm-3,37.33678,R,ugm-3,48.30306,R,ugm-3
07-01-2015,19:00,3.80427,R,ugm-3,28.54980,R,ugm-3,34.38293,R,ugm-3
07-01-2015,20:00,6.77159,R,ugm-3,27.95979,R,ugm-3,38.34276,R,ugm-3
07-01-2015,21:00,4.29882,R,ugm-3,25.63133,R,ugm-3,32.22276,R,ugm-3
07-01-2015,22:00,3.15754,R,ugm-3,23.06093,R,ugm-3,27.90242,R,ugm-3
07-01-2015,23:00,4.18469,R,ugm-3,24.06499,R,ugm-3,30.48143,R,ugm-3
07-01-2015,24:00,4.03252,R,ugm-3,19.19815,R,ugm-3,25.38127,R,ugm-3
08-01-2015,01:00,2.43889,R,ugm-3,19.30159,R,ugm-3,23.04116,R,ugm-3
08-01-2015,02:00,3.09913,R,ugm-3,18.69023,R,ugm-3,23.44215,R,ugm-3
08-01-2015,03:00,1.33368,R,ugm-3,15.83646,R,ugm-3,17.88140,R,ugm-3
08-01-2015,04:00,1.98165,R,ugm-3,16.04348,R,ugm-3,19.08197,R,ugm-3
08-01-2015,05:00,2.47683,R,ugm-3,17.62369,R,ugm-3,21.42143,R,ugm-3
08-01-2015,06:00,5.48719,R,ugm-3,29.74942,R,ugm-3,38.16298,R,ugm-3
08-01-2015,07:00,10.21196,R,ugm-3,50.46705,R,ugm-3,66.12517,R,ugm-3
08-01-2015,08:00,21.71986,R,ugm-3,73.98458,R,ugm-3,107.28790,R,ugm-3
08-01-2015,09:00,68.93204,R,ugm-3,120.70313,R,ugm-3,226.39745,R,ugm-3
08-01-2015,10:00,98.04433,R,ugm-3,145.73059,R,ugm-3,296.06313,R,ugm-3
08-01-2015,11:00,91.14738,R,ugm-3,138.72462,R,ugm-3,278.48199,R,ugm-3
08-01-2015,12:00,54.33800,R,ugm-3,126.63953,R,ugm-3,209.95664,R,ugm-3
08-01-2015,13:00,44.58318,R,ugm-3,116.03424,R,ugm-3,184.39417,R,ugm-3
08-01-2015,14:00,38.10502,R,ugm-3,106.16622,R,ugm-3,164.59310,R,ugm-3
08-01-2015,15:00,51.13712,R,ugm-3,114.50568,R,ugm-3,192.91483,R,ugm-3
08-01-2015,16:00,68.55130,R,ugm-3,130.52813,R,ugm-3,235.63865,R,ugm-3
08-01-2015,17:00,60.66337,R,ugm-3,131.82145,R,ugm-3,224.83733,R,ugm-3
08-01-2015,18:00,26.86404,R,ugm-3,102.46075,R,ugm-3,143.65170,R,ugm-3
08-01-2015,19:00,22.67248,R,ugm-3,91.96639,R,ugm-3,126.73038,R,ugm-3
08-01-2015,20:00,17.98575,R,ugm-3,78.15049,R,ugm-3,105.72826,R,ugm-3
08-01-2015,21:00,9.60234,R,ugm-3,58.18208,R,ugm-3,72.90546,R,ugm-3
08-01-2015,22:00,6.13485,R,ugm-3,39.55767,R,ugm-3,48.96430,R,ugm-3
08-01-2015,23:00,6.47785,R,ugm-3,33.93110,R,ugm-3,43.86367,R,ugm-3
08-01-2015,24:00,5.03005,R,ugm-3,30.57036,R,ugm-3,38.28299,R,ugm-3
09-01-2015,01:00,3.97265,R,ugm-3,25.67149,R,ugm-3,31.76280,R,ugm-3
09-01-2015,02:00,,,,,,,,,
09-01-2015,03:00,1.79518,R,ugm-3,13.02843,R,ugm-3,15.78099,R,ugm-3
09-01-2015,04:00,1.94828,R,ugm-3,13.93352,R,ugm-3,16.92084,R,ugm-3
09-01-2015,05:00,1.64269,R,ugm-3,14.64210,R,ugm-3,17.16086,R,ugm-3
09-01-2015,06:00,3.36179,R,ugm-3,23.88760,R,ugm-3,29.04227,R,ugm-3
09-01-2015,07:00,7.86890,R,ugm-3,33.77810,R,ugm-3,45.84358,R,ugm-3
09-01-2015,08:00,12.83472,R,ugm-3,52.38624,R,ugm-3,72.06587,R,ugm-3
09-01-2015,09:00,18.67925,R,ugm-3,67.00683,R,ugm-3,95.64795,R,ugm-3
09-01-2015,10:00,22.38467,R,ugm-3,76.86672,R,ugm-3,111.18940,R,ugm-3
09-01-2015,11:00,22.00237,R,ugm-3,79.73260,R,ugm-3,113.46910,R,ugm-3
09-01-2015,12:00,21.81154,R,ugm-3,69.64369,R,ugm-3,103.08758,R,ugm-3
09-01-2015,13:00,15.73781,R,ugm-3,62.75630,R,ugm-3,86.88727,R,ugm-3
09-01-2015,14:00,10.42805,R,ugm-3,50.61623,R,ugm-3,66.60568,R,ugm-3
09-01-2015,15:00,10.73426,R,ugm-3,52.24663,R,ugm-3,68.70561,R,ugm-3
09-01-2015,16:00,13.75148,R,ugm-3,55.30042,R,ugm-3,76.38573,R,ugm-3
09-01-2015,17:00,15.31778,R,ugm-3,53.67909,R,ugm-3,77.16603,R,ugm-3
09-01-2015,18:00,12.94947,R,ugm-3,46.44889,R,ugm-3,66.30446,R,ugm-3
09-01-2015,19:00,10.23722,R,ugm-3,40.82709,R,ugm-3,56.52394,R,ugm-3
09-01-2015,20:00,12.22354,R,ugm-3,40.60238,R,ugm-3,59.34488,R,ugm-3
09-01-2015,21:00,8.28893,R,ugm-3,45.01547,R,ugm-3,57.72499,R,ugm-3
09-01-2015,22:00,8.21222,R,ugm-3,42.73194,R,ugm-3,55.32384,R,ugm-3
09-01-2015,23:00,6.60851,R,ugm-3,37.51034,R,ugm-3,47.64324,R,ugm-3
09-01-2015,24:00,7.52559,R,ugm-3,31.90433,R,ugm-3,43.44339,R,ugm-3
10-01-2015,01:00,6.12175,R,ugm-3,26.56526,R,ugm-3,35.95181,R,ugm-3
10-01-2015,02:00,6.27475,R,ugm-3,28.49243,R,ugm-3,38.11358,R,ugm-3
10-01-2015,03:00,3.44348,R,ugm-3,18.86108,R,ugm-3,24.14101,R,ugm-3
10-01-2015,04:00,2.44876,R,ugm-3,16.54313,R,ugm-3,20.29784,R,ugm-3
10-01-2015,05:00,1.53044,R,ugm-3,13.80777,R,ugm-3,16.15441,R,ugm-3
10-01-2015,06:00,2.37237,R,ugm-3,12.69661,R,ugm-3,16.33418,R,ugm-3
10-01-2015,07:00,3.94084,R,ugm-3,17.13791,R,ugm-3,23.18046,R,ugm-3
10-01-2015,08:00,3.97920,R,ugm-3,18.88020,R,ugm-3,24.98155,R,ugm-3
10-01-2015,09:00,4.59162,R,ugm-3,21.84505,R,ugm-3,28.88544,R,ugm-3
10-01-2015,10:00,5.47097,R,ugm-3,27.70304,R,ugm-3,36.09174,R,ugm-3
10-01-2015,11:00,6.58076,R,ugm-3,34.28873,R,ugm-3,44.37908,R,ugm-3
10-01-2015,12:00,13.65887,R,ugm-3,44.63393,R,ugm-3,65.57723,R,ugm-3
10-01-2015,13:00,17.21742,R,ugm-3,51.18806,R,ugm-3,77.58773,R,ugm-3
10-01-2015,14:00,15.18993,R,ugm-3,49.07236,R,ugm-3,72.36326,R,ugm-3
10-01-2015,15:00,13.50608,R,ugm-3,47.69058,R,ugm-3,68.39961,R,ugm-3
10-01-2015,16:00,20.35531,R,ugm-3,60.42878,R,ugm-3,91.63983,R,ugm-3
10-01-2015,17:00,23.26277,R,ugm-3,73.74648,R,ugm-3,109.41556,R,ugm-3
10-01-2015,18:00,22.65066,R,ugm-3,74.92553,R,ugm-3,109.65606,R,ugm-3
10-01-2015,19:00,22.72705,R,ugm-3,82.43497,R,ugm-3,117.28263,R,ugm-3
10-01-2015,20:00,20.43140,R,ugm-3,78.86911,R,ugm-3,110.19682,R,ugm-3
10-01-2015,21:00,15.84009,R,ugm-3,74.07830,R,ugm-3,98.36609,R,ugm-3
10-01-2015,22:00,18.63279,R,ugm-3,75.98171,R,ugm-3,104.55159,R,ugm-3
10-01-2015,23:00,15.91680,R,ugm-3,73.05989,R,ugm-3,97.46530,R,ugm-3
10-01-2015,24:00,15.26571,R,ugm-3,69.07328,R,ugm-3,92.48037,R,ugm-3
11-01-2015,01:00,11.60862,R,ugm-3,54.98438,R,ugm-3,72.78401,R,ugm-3
11-01-2015,02:00,7.77317,R,ugm-3,51.33660,R,ugm-3,63.25530,R,ugm-3
11-01-2015,03:00,9.05166,R,ugm-3,41.48930,R,ugm-3,55.36831,R,ugm-3
11-01-2015,04:00,5.06279,R,ugm-3,37.33678,R,ugm-3,45.09962,R,ugm-3
11-01-2015,05:00,5.79153,R,ugm-3,33.87707,R,ugm-3,42.75728,R,ugm-3
11-01-2015,06:00,4.90937,R,ugm-3,35.04991,R,ugm-3,42.57751,R,ugm-3
11-01-2015,07:00,6.25178,R,ugm-3,38.21605,R,ugm-3,47.80198,R,ugm-3
11-01-2015,08:00,5.86824,R,ugm-3,46.25047,R,ugm-3,55.24830,R,ugm-3
11-01-2015,09:00,8.20786,R,ugm-3,50.04917,R,ugm-3,62.63438,R,ugm-3
11-01-2015,10:00,9.05166,R,ugm-3,53.49932,R,ugm-3,67.37833,R,ugm-3
11-01-2015,11:00,13.50078,R,ugm-3,57.96788,R,ugm-3,78.66878,R,ugm-3
11-01-2015,12:00,15.87875,R,ugm-3,63.86985,R,ugm-3,88.21693,R,ugm-3
11-01-2015,13:00,15.61027,R,ugm-3,62.60043,R,ugm-3,86.53584,R,ugm-3
11-01-2015,14:00,10.47077,R,ugm-3,46.87968,R,ugm-3,62.93464,R,ugm-3
11-01-2015,15:00,10.54748,R,ugm-3,48.20408,R,ugm-3,64.37666,R,ugm-3
11-01-2015,16:00,9.12837,R,ugm-3,43.83402,R,ugm-3,57.83065,R,ugm-3
11-01-2015,17:00,10.85432,R,ugm-3,44.79075,R,ugm-3,61.43380,R,ugm-3
11-01-2015,18:00,14.11445,R,ugm-3,54.38481,R,ugm-3,76.02666,R,ugm-3
11-01-2015,19:00,12.08166,R,ugm-3,58.04198,R,ugm-3,76.56694,R,ugm-3
11-01-2015,20:00,8.20786,R,ugm-3,46.26624,R,ugm-3,58.85145,R,ugm-3
11-01-2015,21:00,8.43799,R,ugm-3,42.19023,R,ugm-3,55.12829,R,ugm-3
11-01-2015,22:00,7.21064,R,ugm-3,37.70685,R,ugm-3,48.76301,R,ugm-3
11-01-2015,23:00,5.40798,R,ugm-3,31.70303,R,ugm-3,39.99516,R,ugm-3
11-01-2015,24:00,4.18064,R,ugm-3,25.17758,R,ugm-3,31.58781,R,ugm-3
12-01-2015,01:00,3.58557,R,ugm-3,21.24533,R,ugm-3,26.74313,R,ugm-3
12-01-2015,02:00,2.10004,R,ugm-3,16.23713,R,ugm-3,19.45714,R,ugm-3
12-01-2015,03:00,2.15128,R,ugm-3,11.53429,R,ugm-3,14.83287,R,ugm-3
12-01-2015,04:00,1.19055,R,ugm-3,8.74395,R,ugm-3,10.56943,R,ugm-3
12-01-2015,05:00,1.79237,R,ugm-3,9.98325,R,ugm-3,12.73151,R,ugm-3
12-01-2015,06:00,2.53545,R,ugm-3,17.49125,R,ugm-3,21.37888,R,ugm-3
12-01-2015,07:00,8.02918,R,ugm-3,36.57130,R,ugm-3,48.88254,R,ugm-3
12-01-2015,08:00,5.83924,R,ugm-3,35.84599,R,ugm-3,44.79936,R,ugm-3
12-01-2015,09:00,7.79874,R,ugm-3,37.52516,R,ugm-3,49.48307,R,ugm-3
12-01-2015,10:00,8.64379,R,ugm-3,43.49599,R,ugm-3,56.74961,R,ugm-3
12-01-2015,11:00,6.72295,R,ugm-3,39.05468,R,ugm-3,49.36306,R,ugm-3
12-01-2015,12:00,7.56831,R,ugm-3,35.41663,R,ugm-3,47.02120,R,ugm-3
12-01-2015,13:00,7.52964,R,ugm-3,34.21463,R,ugm-3,45.75991,R,ugm-3
12-01-2015,14:00,9.29675,R,ugm-3,39.97316,R,ugm-3,54.22798,R,ugm-3
12-01-2015,15:00,11.90922,R,ugm-3,43.53376,R,ugm-3,61.79431,R,ugm-3
12-01-2015,16:00,14.17588,R,ugm-3,54.23037,R,ugm-3,75.96641,R,ugm-3
12-01-2015,17:00,19.05469,R,ugm-3,64.58513,R,ugm-3,93.80191,R,ugm-3
12-01-2015,18:00,15.52078,R,ugm-3,55.89138,R,ugm-3,79.68957,R,ugm-3
12-01-2015,19:00,12.98471,R,ugm-3,57.37739,R,ugm-3,77.28699,R,ugm-3
12-01-2015,20:00,7.22218,R,ugm-3,43.69393,R,ugm-3,54.76778,R,ugm-3
12-01-2015,21:00,5.45507,R,ugm-3,32.65163,R,ugm-3,41.01595,R,ugm-3
12-01-2015,22:00,4.07244,R,ugm-3,26.72480,R,ugm-3,32.96911,R,ugm-3
12-01-2015,23:00,3.61125,R,ugm-3,22.86728,R,ugm-3,28.40445,R,ugm-3
12-01-2015,24:00,3.88035,R,ugm-3,21.91438,R,ugm-3,27.86417,R,ugm-3
13-01-2015,01:00,4.87778,R,ugm-3,16.56098,R,ugm-3,24.04013,R,ugm-3
13-01-2015,02:00,2.05430,R,ugm-3,14.15888,R,ugm-3,17.30876,R,ugm-3
13-01-2015,03:00,3.00381,R,ugm-3,15.70832,R,ugm-3,20.31410,R,ugm-3
13-01-2015,04:00,2.11792,R,ugm-3,18.02818,R,ugm-3,21.27561,R,ugm-3
13-01-2015,05:00,3.54296,R,ugm-3,22.81469,R,ugm-3,28.24715,R,ugm-3
13-01-2015,06:00,2.00285,R,ugm-3,19.10588,R,ugm-3,22.17687,R,ugm-3
13-01-2015,07:00,7.81777,R,ugm-3,38.37718,R,ugm-3,50.36425,R,ugm-3
13-01-2015,08:00,22.60575,R,ugm-3,69.79238,R,ugm-3,104.45406,R,ugm-3
13-01-2015,09:00,35.08312,R,ugm-3,98.56117,R,ugm-3,152.35453,R,ugm-3
13-01-2015,10:00,51.79632,R,ugm-3,115.18557,R,ugm-3,194.60548,R,ugm-3
13-01-2015,11:00,40.24320,R,ugm-3,99.18321,R,ugm-3,160.88858,R,ugm-3
13-01-2015,12:00,20.14109,R,ugm-3,76.93796,R,ugm-3,107.82053,R,ugm-3
13-01-2015,13:00,7.93314,R,ugm-3,44.63058,R,ugm-3,56.79456,R,ugm-3
13-01-2015,14:00,9.31920,R,ugm-3,36.49528,R,ugm-3,50.78453,R,ugm-3
13-01-2015,15:00,19.79403,R,ugm-3,59.31906,R,ugm-3,89.66948,R,ugm-3
13-01-2015,16:00,40.89772,R,ugm-3,94.33311,R,ugm-3,157.04207,R,ugm-3
13-01-2015,17:00,50.25621,R,ugm-3,108.71128,R,ugm-3,185.76973,R,ugm-3
13-01-2015,18:00,35.66093,R,ugm-3,93.70820,R,ugm-3,148.38753,R,ugm-3
13-01-2015,19:00,19.10115,R,ugm-3,76.84903,R,ugm-3,106.13706,R,ugm-3
13-01-2015,20:00,13.47864,R,ugm-3,61.55047,R,ugm-3,82.21742,R,ugm-3
13-01-2015,21:00,11.78449,R,ugm-3,55.01258,R,ugm-3,73.08188,R,ugm-3
13-01-2015,22:00,10.85993,R,ugm-3,54.92796,R,ugm-3,71.57962,R,ugm-3
13-01-2015,23:00,7.23995,R,ugm-3,38.78215,R,ugm-3,49.88326,R,ugm-3
13-01-2015,24:00,6.85485,R,ugm-3,33.06187,R,ugm-3,43.57249,R,ugm-3
14-01-2015,01:00,3.24007,R,ugm-3,23.07878,R,ugm-3,28.04681,R,ugm-3
14-01-2015,02:00,4.83454,R,ugm-3,24.31999,R,ugm-3,31.73284,R,ugm-3
14-01-2015,03:00,1.38866,R,ugm-3,19.74784,R,ugm-3,21.87709,R,ugm-3
14-01-2015,04:00,2.15970,R,ugm-3,12.61533,R,ugm-3,15.92682,R,ugm-3
14-01-2015,05:00,2.77743,R,ugm-3,18.87972,R,ugm-3,23.13838,R,ugm-3
14-01-2015,06:00,4.32002,R,ugm-3,25.95023,R,ugm-3,32.57418,R,ugm-3
14-01-2015,07:00,10.72366,R,ugm-3,44.07834,R,ugm-3,60.52106,R,ugm-3
14-01-2015,08:00,12.38164,R,ugm-3,50.91171,R,ugm-3,69.89662,R,ugm-3
14-01-2015,09:00,23.52969,R,ugm-3,78.59323,R,ugm-3,114.67159,R,ugm-3
14-01-2015,10:00,29.12227,R,ugm-3,87.26690,R,ugm-3,131.92043,R,ugm-3
14-01-2015,11:00,32.82519,R,ugm-3,87.83921,R,ugm-3,138.17048,R,ugm-3
14-01-2015,12:00,31.20526,R,ugm-3,83.47154,R,ugm-3,131.31894,R,ugm-3
14-01-2015,13:00,26.46085,R,ugm-3,75.72161,R,ugm-3,116.29434,R,ugm-3
14-01-2015,14:00,21.25337,R,ugm-3,62.07067,R,ugm-3,94.65871,R,ugm-3
14-01-2015,15:00,9.91323,R,ugm-3,41.83546,R,ugm-3,57.03553,R,ugm-3
14-01-2015,16:00,11.64916,R,ugm-3,50.59232,R,ugm-3,68.45411,R,ugm-3
14-01-2015,17:00,9.75919,R,ugm-3,55.35349,R,ugm-3,70.31737,R,ugm-3
14-01-2015,18:00,6.90474,R,ugm-3,51.43621,R,ugm-3,62.02333,R,ugm-3
14-01-2015,19:00,4.28167,R,ugm-3,32.86058,R,ugm-3,39.42571,R,ugm-3
14-01-2015,20:00,2.35272,R,ugm-3,21.75517,R,ugm-3,25.36262,R,ugm-3
14-01-2015,21:00,2.66143,R,ugm-3,19.05758,R,ugm-3,23.13838,R,ugm-3
14-01-2015,22:00,1.81295,R,ugm-3,13.74801,R,ugm-3,16.52783,R,ugm-3
14-01-2015,23:00,1.81295,R,ugm-3,12.18549,R,ugm-3,14.96531,R,ugm-3
14-01-2015,24:00,1.38887,R,ugm-3,8.68849,R,ugm-3,10.81806,R,ugm-3
15-01-2015,01:00,1.75287,R,ugm-3,7.09601,R,ugm-3,9.78371,R,ugm-3
15-01-2015,02:00,1.13421,R,ugm-3,9.16789,R,ugm-3,10.90699,R,ugm-3
15-01-2015,03:00,2.01065,R,ugm-3,4.55605,R,ugm-3,7.63900,R,ugm-3
15-01-2015,04:00,1.93332,R,ugm-3,5.87759,R,ugm-3,8.84197,R,ugm-3
15-01-2015,05:00,3.51863,R,ugm-3,12.16828,R,ugm-3,17.56344,R,ugm-3
15-01-2015,06:00,2.31998,R,ugm-3,16.17114,R,ugm-3,19.72839,R,ugm-3
15-01-2015,07:00,7.81059,R,ugm-3,30.66885,R,ugm-3,42.64493,R,ugm-3
15-01-2015,08:00,5.91594,R,ugm-3,36.04011,R,ugm-3,45.11109,R,ugm-3
15-01-2015,09:00,8.27459,R,ugm-3,52.03243,R,ugm-3,64.71996,R,ugm-3
15-01-2015,10:00,11.29056,R,ugm-3,59.49692,R,ugm-3,76.80887,R,ugm-3
15-01-2015,11:00,10.63323,R,ugm-3,57.01688,R,ugm-3,73.32095,R,ugm-3
15-01-2015,12:00,7.88793,R,ugm-3,41.73744,R,ugm-3,53.83209,R,ugm-3
15-01-2015,13:00,10.78790,R,ugm-3,40.29877,R,ugm-3,56.83998,R,ugm-3
15-01-2015,14:00,12.48922,R,ugm-3,42.20123,R,ugm-3,61.35109,R,ugm-3
15-01-2015,15:00,13.91987,R,ugm-3,47.88709,R,ugm-3,69.23059,R,ugm-3